[[{"header":{"parameterUnit":"m.s-1","parameterCategory":1,"la1":30.2992,"la2":30.254,"lo1":-89.0895,"lo2":-89.0443,"dy":0.0025,"dx":0.0025,"nx":19,"ny":19,"refTime":"2026-05-10T03:00:00:Z","depth":0,"parameterNumber":2,"parameterNumberName":"U-component_of_WINDS"},"data":[0,0,0,-0.0985,-0.0985,-0.0961,-0.0961,-0.0946,-0.0946,0,0,0,0,0,0,0,0,0,0,0,-0.1,-0.1,-0.0985,-0.0985,-0.0961,-0.0961,-0.0946,-0.0946,0,0,0,0,0,0,0,0,0,0,0,-0.1,-0.1,-0.1,-0.0985,-0.0961,-0.0961,-0.0946,-0.0959,0,0,0,0,0,0,0,0,0,0,-0.0979,-0.1,-0.1,-0.1,-0.0985,-0.0961,-0.0961,-0.0959,-0.0958,-0.0962,0,-0.0967,0,-0.0956,-0.0946,-0.0946,0,0,0,-0.0979,-0.1001,-0.0987,-0.1,-0.0984,-0.0961,-0.097,-0.0958,-0.0957,-0.0961,-0.0967,-0.0966,-0.0956,-0.0946,-0.0946,-0.0987,-0.0987,0,0,-0.0981,-0.1,-0.0988,-0.0987,-0.099,-0.0971,-0.097,-0.0957,-0.0966,-0.0967,-0.0965,-0.0956,-0.0946,-0.0946,-0.0986,-0.0987,0,0,0,-0.0988,-0.1001,-0.0988,-0.0988,-0.0982,-0.0971,-0.0969,-0.0966,-0.096,-0.0965,-0.0956,-0.0946,-0.0945,-0.0986,-0.0986,-0.1028,0,0,0,-0.0988,-0.1005,-0.0988,-0.1,-0.0983,-0.0974,-0.0979,-0.0961,-0.0959,-0.0956,-0.0946,-0.0945,-0.0985,-0.0986,-0.1025,-0.1045,0,0,0,-0.0999,-0.1006,-0.1005,-0.1001,-0.0992,-0.0973,-0.0966,-0.096,-0.0953,-0.0946,-0.0945,-0.0985,-0.0986,-0.1023,-0.1041,-0.1062,0,0,0,-0.1015,-0.1043,-0.1006,-0.1033,-0.0992,-0.0998,-0.0966,-0.097,-0.0968,-0.0946,-0.0985,-0.0986,-0.1023,-0.1039,-0.106,-0.1084,-0.1095,0,0,-0.1061,-0.1049,-0.1063,-0.103,-0.1048,-0.1,-0.1024,-0.1005,-0.0987,-0.0988,-0.0989,-0.1026,-0.1041,-0.1061,-0.1149,-0.1158,0,0,0,-0.1084,-0.1095,-0.1095,-0.1094,-0.1078,-0.1067,-0.1042,-0.1034,-0.1034,-0.0991,-0.1038,-0.1046,-0.1057,-0.1068,-0.1076,-0.1085,-0.0992,-0.0992,-0.0991,-0.1178,-0.1152,-0.1174,-0.1146,-0.1145,-0.1117,-0.1115,-0.11,-0.1075,-0.1087,-0.1088,-0.1144,-0.1157,-0.1163,-0.1172,-0.1097,-0.1097,-0.1097,-0.1097,-0.1243,-0.1255,-0.1219,-0.1228,-0.1202,-0.1209,-0.1184,-0.1166,-0.117,-0.1141,-0.115,-0.1122,-0.1173,-0.1181,-0.11,-0.11,-0.1099,-0.1099,-0.1099,-0.1303,-0.1304,-0.1293,-0.1288,-0.1288,-0.1258,-0.1263,-0.1238,-0.1215,-0.1223,-0.1222,-0.1221,-0.1219,-0.1224,-0.1224,-0.1224,-0.1224,-0.1225,-0.1225,-0.137,-0.1357,-0.1364,-0.1349,-0.1345,-0.1336,-0.1308,-0.1304,-0.1293,-0.1274,-0.1274,-0.1249,-0.1182,-0.1167,-0.1228,-0.1227,-0.1227,-0.1227,-0.1226,-0.1449,-0.1427,-0.1438,-0.1433,-0.1414,-0.1416,-0.1383,-0.1376,-0.1368,-0.1372,-0.1344,-0.1298,-0.1285,-0.1278,-0.1266,-0.1348,-0.1348,-0.1348,-0.1348,-0.1501,-0.1491,-0.1496,-0.1491,-0.1483,-0.1454,-0.1468,-0.1447,-0.1422,-0.1416,-0.14,-0.138,-0.1375,-0.1365,-0.1357,-0.1345,-0.1445,-0.1445,-0.1446,-0.1549,-0.1537,-0.1554,-0.1527,-0.151,-0.1497,-0.151,-0.1506,-0.1473,-0.1449,-0.1411,-0.1407,-0.1375,-0.1366,-0.1344,-0.1331,-0.1309,0,0]},{"header":{"parameterUnit":"m.s-1","parameterCategory":1,"la1":30.2992,"la2":30.254,"lo1":-89.0895,"lo2":-89.0443,"dy":0.0025,"dx":0.0025,"nx":19,"ny":19,"refTime":"2026-05-10T03:00:00:Z","depth":0,"parameterNumber":3,"parameterNumberName":"V-component_of_WINDS"},"data":[0,0,0,1.5153,1.5152,1.5085,1.5085,1.5018,1.5017,0,0,0,0,0,0,0,0,0,0,0,1.5185,1.5185,1.5153,1.5152,1.5085,1.5085,1.5018,1.5017,0,0,0,0,0,0,0,0,0,0,0,1.5185,1.5185,1.5185,1.5151,1.5085,1.5085,1.5018,1.5061,0,0,0,0,0,0,0,0,0,0,1.5123,1.5164,1.5185,1.5185,1.5151,1.5085,1.5085,1.5063,1.5059,1.5056,0,1.5058,0,1.5037,1.5014,1.5014,0,0,0,1.5142,1.5168,1.5139,1.5185,1.5151,1.5085,1.5113,1.506,1.5055,1.505,1.5056,1.5053,1.5036,1.5014,1.5013,1.5032,1.5032,0,0,1.5146,1.5179,1.5143,1.5137,1.5149,1.5115,1.5111,1.5057,1.5066,1.5056,1.5052,1.5034,1.5013,1.5013,1.5031,1.5032,0,0,0,1.5163,1.5182,1.5154,1.514,1.5127,1.5113,1.5108,1.5068,1.5056,1.5051,1.5034,1.5013,1.5013,1.503,1.5031,1.5089,0,0,0,1.5165,1.5191,1.5156,1.5175,1.5128,1.5097,1.5121,1.506,1.5053,1.5034,1.5013,1.5012,1.503,1.5031,1.5086,1.5111,0,0,0,1.5185,1.5194,1.5188,1.5177,1.515,1.5097,1.5082,1.5058,1.5043,1.5014,1.5012,1.5029,1.5031,1.5084,1.5107,1.5126,0,0,0,1.5215,1.524,1.519,1.521,1.5151,1.5134,1.5082,1.5067,1.5049,1.5013,1.503,1.5031,1.5083,1.5104,1.5123,1.5148,1.5161,0,0,1.5264,1.5247,1.5257,1.521,1.521,1.5141,1.5149,1.5101,1.5068,1.5045,1.5045,1.5087,1.5106,1.5125,1.5225,1.5236,0,0,0,1.5283,1.5291,1.5283,1.5269,1.5233,1.5205,1.5152,1.5134,1.5114,1.5063,1.5098,1.5109,1.5118,1.5128,1.5138,1.5144,1.5037,1.5037,1.5037,1.5399,1.5356,1.5369,1.5319,1.5305,1.5251,1.5236,1.5202,1.5162,1.5171,1.5164,1.523,1.5243,1.525,1.5257,1.5173,1.5174,1.5174,1.5174,1.5467,1.5471,1.5418,1.5412,1.5367,1.5361,1.531,1.5282,1.5269,1.5231,1.5238,1.52,1.5263,1.5267,1.5178,1.5177,1.5177,1.5176,1.5176,1.5538,1.5533,1.5512,1.5486,1.5471,1.5418,1.541,1.5368,1.5328,1.5335,1.5323,1.5322,1.5316,1.5332,1.5332,1.5333,1.5333,1.5333,1.5333,1.562,1.5595,1.5593,1.5558,1.5544,1.5519,1.5466,1.5449,1.5421,1.5391,1.5391,1.535,1.5278,1.526,1.5336,1.5336,1.5335,1.5335,1.5335,1.5705,1.568,1.5677,1.5663,1.5619,1.5607,1.5554,1.5526,1.5506,1.5503,1.5461,1.5414,1.5393,1.5385,1.537,1.547,1.547,1.547,1.547,1.5765,1.5751,1.5739,1.5719,1.5694,1.5647,1.5644,1.5603,1.5556,1.5542,1.5521,1.5498,1.5492,1.5474,1.5465,1.545,1.5568,1.5568,1.5569,1.5815,1.5797,1.5803,1.5759,1.5722,1.5691,1.5687,1.5665,1.5607,1.5572,1.5529,1.5525,1.5488,1.5478,1.5442,1.5428,1.5401,0,0]}]]